Simultaneous Nadir Overpasses (SNOs) Predictions

Prediction of SNOs between METOP-B and NOAA-19 Satellite Orbit:

Table of predicted SNOs for the next 14.0 days since TLE Epoch: 10/27/2012
Index Date (METOP-B) Time (METOP-B) METOP-B Lat,Lon Date (NOAA-19) Time (NOAA-19) NOAA-19 Lat,Lon Distance(km) Time Diff (sec)
1 11/06/2012 02:04:16 73.85, 143.28 11/06/2012 02:03:10 73.85, 140.26 93.62 66
2 11/06/2012 02:55:12 -73.16, -50.99 11/06/2012 02:54:03 -73.16, -50.88 3.37 69
3 11/06/2012 03:45:51 73.19, 116.42 11/06/2012 03:45:01 73.17, 116.36 3.14 50
4 11/06/2012 04:36:34 -73.14, -76.36 11/06/2012 04:36:08 -73.16, -76.40 2.13 26
5 11/06/2012 05:27:14 73.12, 90.93 11/06/2012 05:27:05 73.12, 90.94 0.75 9
6 11/06/2012 06:17:57 -73.08,-101.84 11/06/2012 06:18:12 -73.11,-101.82 3.30 15
7 11/06/2012 07:08:37 73.06, 65.45 11/06/2012 07:09:09 73.07, 65.53 2.78 32
8 11/06/2012 07:59:19 -73.07,-127.21 11/06/2012 08:00:16 -73.06,-127.23 0.93 57
9 11/06/2012 08:49:59 73.04, 40.08 11/06/2012 08:51:13 73.02, 40.12 2.94 74




NCC Satellite Simultaneous Nadir Overpasses (SNOs) Prediction Service
